Location: Epalinges
(46.5518°N, 6.6683°E)
Time: 02:52:18
(UTC+00:00)

USA 308 - Pass Details

Date: 20 June 2021
Orbit: 566 x 576 km, 54.0° (Epoch: 13 July)

Event Time Altitude Azimuth Distance (km) Brightness Sun altitude
Exits shadow 02:28:03 - 254° (WSW) 1,966 5.1 -9.8°
Reaches altitude 10° 02:28:20 10° 255° (WSW) 1,860 5.0 -9.8°
Maximum altitude 02:32:29 57° 334° (NNW) 672 3.4 -9.3°
Drops below altitude 10° 02:36:41 10° 54° (NE) 1,867 7.1 -8.9°
Sets 02:38:58 0° 59° (ENE) 2,766 8.1 -8.6°
